Regional Weather Roundup
Issued by NWS

Home | Current Version | Previous Version | Graphics & Text | Print | Product List | Glossary Off
Versions: 1 2 3 4 5 6 7 8 9 10 11 12 13 14 15 16 17 18 19 20 21 22 23 24 25 26 27 28 29 30 31 32 33 34 35 36 37 38 39 40 41 42 43 44 45 46 47 48 49 50

000
ASUS43 KMPX 291710
RWRMN
WEATHER ROUNDUP FOR MINNESOTA
NATIONAL WEATHER SERVICE TWIN CITIES/CHANHASSEN MN
1200 PM CDT MON JUN 29 2015


NOTE: "FAIR" INDICATES FEW OR NO CLOUDS BELOW 12,000 FEET WITH NO
SIGNIFICANT WEATHER AND/OR OBSTRUCTIONS TO VISIBILITY. N/A MEANS
CURRENT SKY AND/OR WEATHER CONDITIONS ARE NOT AVAILABLE.

MNZ060>063-068>070-291800-
   Twin Cities Metro

CITY           SKY/WX    TMP DP  RH WIND       PRES   REMARKS
TWIN CITIES    MOSUNNY   80  63  55 NW12      29.83S
ST PAUL        SUNNY     80  63  55 NW12      29.82S
CRYSTAL        MOSUNNY   81  62  52 W14       29.82S
BLAINE         SUNNY     81  64  57 NW8       29.83S
LAKEVILLE      SUNNY     77  66  69 NW10      29.84S
EDEN PRAIRIE   SUNNY     80  66  62 NW9       29.83S
SOUTH ST PAUL  SUNNY     80  61  52 NW9       29.82S
LAKE ELMO      FAIR      79  64  61 NW6       29.84S
$$
MNZ001>005-007-008-013>017-022>024-027-028-291800-
   Northwest Minnesota

CITY           SKY/WX    TMP DP  RH WIND       PRES   REMARKS
BEMIDJI        MOSUNNY   75  64  67 NW9       29.82R
HALLOCK        SUNNY     75  64  69 N9        29.85R
ROSEAU         SUNNY     75  61  60 N9G17     29.84R
WARROAD        SUNNY     72  64  78 E6        29.84S
THIEF RVR FALL SUNNY     73  63  68 N9        29.84S
CROOKSTON      SUNNY     72  64  78 N8        29.84S
FOSSTON        SUNNY     73  63  68 CALM      29.84S
DETROIT LAKES  SUNNY     73  61  64 NW13      29.87S
MOORHEAD       SUNNY     73  64  73 NW7       29.86S
PARK RAPIDS    MOSUNNY   79  62  56 NW14      29.83S
MAHNOMEN       FAIR      72  62  71 NW5       29.85S
$$
MNZ006-009>011-018-025>026-291800-
   North Central Minnesota

CITY           SKY/WX    TMP DP  RH WIND       PRES   REMARKS
BAUDETTE       SUNNY     75  61  61 N8        29.82R
FLAG ISLAND    SUNNY     72  57  60 N15       29.82S
INTL FALLS     SUNNY     74  59  59 MISG      29.79S
WASKISH        SUNNY     75  64  69 SW5       29.81S
BIG FORK       SUNNY    N/A N/A N/A NE8       29.80S
LONGVILLE      MOSUNNY   75  64  69 W9        29.81S
GRAND RAPIDS   MOSUNNY   75  63  64 NW9       29.80S
CRANE LAKE     PTSUNNY   66  63  88 NW5       29.80S
ORR            MOSUNNY   70  59  68 CALM      29.78S
COOK           PTSUNNY   66  63  88 W5        29.81S
WALKER         FAIR      74  64  71 W6        29.81S
$$
MNZ012-019>021-037-291800-
   Northeast Minnesota

CITY           SKY/WX    TMP DP  RH WIND       PRES   REMARKS
DULUTH         MOSUNNY   61  55  81 N6        29.79F
ELY            CLOUDY    63  59  88 W3        29.79R
HIBBING        PTSUNNY   70  62  76 N3        29.80S
EVELETH        TSTM      59  57  94 SE5       29.81S
DULUTH HARBOR  TSTM      64  63  94 NW7       29.79R
TWO HARBORS    PTSUNNY   64  61  88 N5        29.76F
GRAND MARAIS     N/A     58  57  97 SW6       29.76R
G MARAIS ARPRT CLOUDY    61  57  88 CALM      29.79S THUNDER
$$
MNZ029>031-032-039>041-046>048-054>057-064-291800-
   West Central Minnesota

CITY           SKY/WX    TMP DP  RH WIND       PRES   REMARKS
FERGUS FALLS   SUNNY     73  63  68 W6        29.86F
WHEATON        SUNNY     73  63  68 W7        29.89F
MORRIS         SUNNY     75  64  69 NW10      29.88S
ALEXANDRIA     SUNNY     74  64  71 W10       29.88F
ELBOW LAKE     FAIR      72  64  75 W8        29.88S
WADENA         SUNNY     75  63  64 W10       29.84S
GLENWOOD       SUNNY     75  64  69 W8        29.89R
APPLETON       SUNNY     77  63  61 W10       29.89R
BENSON         SUNNY     75  63  64 N8        29.88S
ORTONVILLE     SUNNY     77  63  61 W8        29.90S
MADISON        SUNNY     77  61  57 NW13      29.90R
WILLMAR        FAIR      75  66  73 W10       29.89S
$$
MNZ033>034-036-042>043-049>051-058-059-291800-
   Central Minnesota

CITY           SKY/WX    TMP DP  RH WIND       PRES   REMARKS
ST CLOUD       MOSUNNY   80  62  54 W7        29.83S
SAUK CENTRE    FAIR      76  65  67 W8        29.86S
PAYNESVILLE    MOSUNNY   75  63  67 SW7       29.87S
AITKIN         SUNNY     79  64  61 W3        29.80S
PINE RIVER       N/A     73  64  73 CALM      29.86R
BRAINERD       PTSUNNY   77  62  59 W9        29.82S
STAPLES        SUNNY     77  63  61 W8        29.84S
LONG PRAIRIE   FAIR      77  64  65 W8        29.86S
LITTLE FALLS   MOSUNNY   79  59  50 W9        29.84S
LITCHFIELD     SUNNY     81  64  57 W7        29.86F
BUFFALO        SUNNY     79  62  56 W9        29.85S
MAPLE LAKE     SUNNY     80  67  65 W8        29.85S
$$
MNZ037-044-045-052-053-291800-
   East Central Minnesota

CITY           SKY/WX    TMP DP  RH WIND       PRES   REMARKS
PRINCETON      SUNNY     81  63  54 W9        29.83S
MORA           SUNNY     77  61  57 NW3       29.83S
CAMBRIDGE      SUNNY     81  64  57 NW7       29.80F
RUSH CITY      MOSUNNY   78  65  64 W7        29.81F
MOOSE LAKE     SUNNY     77  68  73 W5        29.78F
HINCKLEY       FAIR      79  64  61 NW6       29.81S
CLOQUET        MOSUNNY   68  54  60 NE7       29.80R THUNDER
MCGREGOR       MOSUNNY   77  63  61 W6        29.80F
$$
MNZ071>073-080-081-089-090-097-098-291800-
   Southwest Minnesota

CITY           SKY/WX    TMP DP  RH WIND       PRES   REMARKS
MONTEVIDEO     SUNNY     75  64  69 NW7       29.90S
GRANITE FALLS  SUNNY     75  66  72 W8        29.91S
CANBY          SUNNY     76  63  63 W8        29.92S
MARSHALL       SUNNY     77  61  57 NW10      29.91S
REDWOOD FALLS  SUNNY     78  65  63 W13       29.88S
OLIVIA         SUNNY     73  64  73 W12       29.87S
PIPESTONE      SUNNY     77  61  57 NW9       29.95S
WINDOM         SUNNY     79  61  53 W13       29.91S
WORTHINGTON    SUNNY     77  61  57 NW12      29.93S
JACKSON        SUNNY     79  63  57 NW13G18   29.92S
TRACY          SUNNY     78  64  62 NW9       29.92S
SLAYTON        SUNNY     78  58  50 NW15      29.94S
$$
MNZ065>067-074>077-082>085-091>093-291800-
   South Central Minnesota

CITY           SKY/WX    TMP DP  RH WIND       PRES   REMARKS
MANKATO        SUNNY     79  64  61 NW12      29.87S
NEW ULM        SUNNY     77  64  65 NW9       29.87F
ST JAMES       SUNNY     79  66  65 W10       29.89S
FAIRMONT       SUNNY     77  61  57 NW13      29.89S
GLENCOE        MOSUNNY   80  67  63 W9        29.85S
FARIBAULT      SUNNY     79  64  61 NW10      29.86S
OWATONNA       SUNNY     79  64  61 NW10      29.86S
WASECA         SUNNY     77  66  69 W10       29.88S
ALBERT LEA     SUNNY     77  64  65 NW9       29.87S
$$
MNZ078>079-086>088-094>096-291800-
   Southeast Minnesota

CITY           SKY/WX    TMP DP  RH WIND       PRES   REMARKS
ROCHESTER      MOSUNNY   77  64  64 NW10      29.86S
RED WING       SUNNY     81  64  57 W8        29.81S
STANTON        SUNNY     79  64  61 NW10      29.83S
DODGE CENTER   SUNNY     77  64  65 NW10      29.86S
WINONA         SUNNY     73  64  73 CALM      29.83S
AUSTIN         SUNNY     77  64  65 NW8       29.86S
PRESTON        PTSUNNY   74  62  66 NW10      29.86S
$$
ABBREVIATIONS USED IN REMARKS
   TC - TEMPERATURES IN CELSIUS
  WCI - WIND CHILL INDEX
   HX - HEAT INDEX
  VSB - VISIBILITY
$$


USA.gov is the U.S. government's official web portal to all federal, state and local government web resources and services.